Aéroport int. Stanfield de Halifax, Nouvelle Écosse

Conditions des dernières 24 heures

Date / Heure
(HNA)
Conditions Temp
(°C)
Humidité
(%)
Point de rosée
(°C)
Vent
(km/h)
Pression
(kPa)
Vis
(km)
Refr. éolien
21 novembre 2014
7:00 Généralement dégagé -2 81 -5 ONO 12 100,8 24 -7
6:00 Généralement dégagé -1 83 -4 O 14 100,7 24 -6
5:00 Généralement dégagé -1 88 -2 O 19 100,7 24 -6
4:00 Partiellement nuageux 0 88 -2 OSO 12 100,6 24 -4
3:00 Généralement nuageux 1 83 -2 O 17 100,6 24 *
2:00 Nuageux 2 84 -1 ONO 16 100,6 24 *
1:00 Généralement nuageux 2 89 1 NO 18 100,6 24 *
0:00 Faible averse de pluie 3 94 2 ONO 20 100,6 16 *
20 novembre 2014
23:00 Partiellement nuageux 4 96 4 SO 18 100,6 24 *
22:00 Partiellement nuageux 4 97 4 SSO 17 100,7 24 *
21:00 Généralement nuageux 4 96 4 SSO 13 100,7 24 *
20:00 Généralement nuageux 5   94 4 SSO 13 100,7 24 *
19:00 Généralement nuageux 5   94 4 SSO 16 100,8 24 *
18:00 Faible averse de pluie 5   96 4 OSO 9 100,9 24 *
17:00 Généralement nuageux 4 95 4 S 14 100,9 24 *
16:00 Partiellement nuageux 4 93 3 SSO 17 101,0 24 *
15:00 Faible averse de pluie 4 94 3 SSO 19 101,1 8 *
14:00 Faible averse de pluie 4 92 3 SO 26 101,2 6 *
13:00 Faible averse de pluie 4 92 3 SSO 27 rafale 37 101,2 5 *
12:00 Faible averse de pluie 4 90 3 S 15 101,3 16 *
11:00 Généralement nuageux 3 92 2 S 18 101,4 16 *
10:00 Généralement nuageux 1 92 -1 SE 14 101,5 16 *
9:00 Faible averse de neige -2 91 -3 SE 11 101,6 5 -6
8:00 Faible averse de neige -3 79 -6 SE 18 101,7 2 -9
7:00 Nuageux -4   76 -8 ESE 13 101,8 23 -9
N.D. non disponible
↑ température la plus haute
↓ température la plus basse
* Valeur non significative.

Si vous désirez plus de données historiques sur les conditions météo, s.v.p. visitez Données climatologiques en ligne.

Date de modification :